map of JHB home
Great Circle Mapper logo
JHB - Airport
Location
City:  Johor Bahru, Johor, Malaysia
Near (Alt.):Senai
Name:Senai International Airport
Old (Alt.):Sultan Ismail International Airport
ICAO / IATA:WMKJ / JHB

Details
Type:Airport (Aerodrome, Airfield)
Use:Public/Civil, International (customs port of entry)
Latitude:1°38'29"N (1.641308)
Longitude:103°40'11"E (103.669619)
Datum:WGS 1984
Elevation:135 ft (41 m)
Runways:1
Longest:11004 × 150 ft (3354 × 45.5 m), paved

Time
Time Zone:UTC+8
Local Time:

Weather
METAR:WMKJ 242300Z 00000KT 1000 BR FEW006 BKN300 24/24 Q1010

Related Locations
Nearby:
Farthest:SEMO: 12387 mi / 19935 km
Montalvo [El Carmen], Los Ríos, EC

Find:

   beyond  
but within

Other Information
Maps:
NOTAMs:
Links:
Sources:

  
flag of Malaysia   

Sectional Chart

Flight Planning
at skyvector.com

Satellite Image

Google Maps Satellite View

 

Copyright © 2004-2014 Karl L. Swartz. All rights reserved.
The Great Circle Mapper name and logo are trademarks of the Great Circle Mapper.
All other trademarks mentioned herein belong to their respective owners.
Please see credits for attibutions and further copyright information.

  Follow gcmap on Facebook Follow gcmap on Twitter

hCard Microformat

Geo Microformat